User: anonymous   Login
Location: Fort Wayne
(41.1310°N, 85.1290°W)
Time: 00:32:15
(UTC-04:00)
Language:

Iridium 37 - Orbit

View from above orbital plane
View from above orbital plane
View from above satellite
View from above satellite

Ground track
Ground track

The orbit data is extracted from the following two-line orbital elements,

1 24968U 97056D   14295.09485210  .00000765  00000-0  26620-3 0    84
2 24968 086.3994 003.9405 0002334 108.5283 251.6167 14.34222012893638
Epoch (UTC): 22 October 2014 02:16:35
Eccentricity: 0.0002334
inclination: 86.3994°
perigee height: 776 km
apogee height: 779 km
right ascension of ascending node: 3.9405°
argument of perigee: 108.5283°
revolutions per day: 14.34222012
mean anomaly at epoch: 251.6167°
orbit number at epoch: 89363

The dashed part of the orbit path shows where the satellite is in the earth's shadow,  

DLR